Location: Beuerbach
(48.1459°N, 10.9174°E)
Time: 01:41:51
(UTC+00:00)

Meteor 1-21 - Pass Details

Date: 09 August 2024
Orbit: 845 x 885 km, 81.2° (Epoch: 09 September)

Event Time Altitude Azimuth Distance (km) Brightness Sun altitude
Rises 22:47:14 0° 359° (N) 3,418 8.7 -25.9°
Reaches altitude 10° 22:50:40 10° 21° (NNE) 2,479 7.4 -26.0°
Maximum altitude 22:54:05 16° 59° (ENE) 2,068 6.4 -26.1°
Enters shadow 22:57:08 11° 93° (E) 2,399 6.4 -26.1°
